Regional Weather Roundup
Issued by NWS Portland, ME

Home | Current Version | Previous Version | Text Only | Print | Product List | Glossary On
Versions: 1 2 3 4 5 6 7 8 9 10 11 12 13 14 15 16 17 18 19 20 21 22 23 24 25 26 27 28 29 30 31 32 33 34 35 36 37 38 39 40 41 42 43 44 45 46 47 48 49 50
000
ASUS41 KGYX 100610
RWRGYX
WEATHER ROUNDUP FOR MAINE AND NEW HAMPSHIRE
NATIONAL WEATHER SERVICE GRAY ME
100 AM EST WED FEB 10 2016

MEZ002-005-006-010-012-015-018-020-021-024-026-027-029-100700-
MAINE

CITY           SKY/WX    TMP DP  RH WIND       PRES   REMARKS
PORTLAND       CLEAR     14  11  87 CALM      29.60F
6HR MIN TEMP:  13; 6HR MAX TEMP:  22;

SANFORD        CLOUDY     7   3  85 W3        29.58S
BAR HARBOR     CLOUDY    19  19 100 N3        29.57F
WISCASSET      PTCLDY     8   4  83 CALM      29.62S
6HR MIN TEMP:   7; 6HR MAX TEMP:  18;

ROCKLAND       MOCLDY    18  14  84 W3        29.60R
FRYEBURG       PTCLDY    14  12  92 CALM      29.57F
6HR MIN TEMP:  14; 6HR MAX TEMP:  21;

LEWISTONAUBURN CLOUDY    14  10  85 CALM      29.57F
AUGUSTA        CLOUDY    13  10  88 W3        29.58S
6HR MIN TEMP:  12; 6HR MAX TEMP:  17;

WATERVILLE     CLEAR      5   1  83 SW3       29.55S
BANGOR         FLURRIES  18  16  92 NW3       29.57F
6HR MIN TEMP:  18; 6HR MAX TEMP:  21; 6HR PCP: TRACE;

GREENVILLE       N/A      7   5  91 NE3       29.45F
6HR MIN TEMP:   5; 6HR MAX TEMP:  14;

MILLINOCKET    CLOUDY    19  14  81 CALM      29.56S
6HR MIN TEMP:  19; 6HR MAX TEMP:  20; 6HR PCP: TRACE;

HOULTON        CLOUDY    16  13  88 CALM      29.52S
6HR MIN TEMP:  15; 6HR MAX TEMP:  18; 6HR PCP: TRACE;

PRESQUE ISLE   FLURRIES  14  11  87 CALM      29.53S
6HR MIN TEMP:  14; 6HR MAX TEMP:  17; 6HR PCP: TRACE;

FRENCHVILLE    CLOUDY    13  10  88 N3        29.48F
6HR MIN TEMP:  13; 6HR MAX TEMP:  16; 6HR PCP:  0.01;

CARIBOU        CLOUDY    14  11  87 N3        29.51S FOG
6HR MIN TEMP:  14; 6HR MAX TEMP:  17; 6HR PCP:  0.03;

$$

NHZ002-005-008-009-011-012-014-100700-
NEW HAMPSHIRE

CITY           SKY/WX    TMP DP  RH WIND       PRES   REMARKS
PORTSMOUTH     CLOUDY    19  15  85 W2        29.59S
ROCHESTER      CLOUDY    15  11  83 NW5       29.58F
6HR MIN TEMP:  12; 6HR MAX TEMP:  23;

NASHUA         CLOUDY    16  14  93 CALM      29.60S
MANCHESTER     CLOUDY    20  16  84 CALM      29.58F
6HR MIN TEMP:  17; 6HR MAX TEMP:  24;

CONCORD        CLOUDY    18  14  84 CALM      29.58F
6HR MIN TEMP:  12; 6HR MAX TEMP:  20;

LACONIA        CLOUDY    18  12  79 CALM      29.57F
PLYMOUTH       CLOUDY    19  18  96 CALM      29.56F
BERLIN         LGT SNOW  14  11  87 CALM      29.50S FOG
6HR MIN TEMP:  13; 6HR MAX TEMP:  21; 6HR PCP: TRACE;

WHITEFIELD     LGT SNOW  18  15  88 CALM      29.50F FOG
6HR MIN TEMP:  14; 6HR MAX TEMP:  24; 6HR PCP: TRACE;

JAFFREY        CLOUDY    16  12  84 CALM      29.52F
6HR MIN TEMP:  10; 6HR MAX TEMP:  16;

KEENE          CLOUDY    21  16  79 CALM      29.56F
LEBANON        CLOUDY    23  19  85 CALM      29.53F
6HR MIN TEMP:  21; 6HR MAX TEMP:  26; 6HR PCP: TRACE;

MT WASHINGTON  BLWGSNOW   5   5 100 W41         N/A  VSB 0   WCI -22
6HR MIN TEMP:   5; 6HR MAX TEMP:   8; 6HR PCP: TRACE;

$$

VTZ005-007-008-100700-
VERMONT

CITY           SKY/WX    TMP DP  RH WIND       PRES   REMARKS
ST JOHNSBURY     N/A     18  13  80 MISG      29.51F
MONTPELIER     CLOUDY    22  17  81 S5        29.52F
BURLINGTON     CLOUDY    26  21  81 CALM      29.52F
$$

MAZ007-012-024-CTZ003-RIZ002-NYZ038-NYZ072-100700-
SOUTHERN NEW ENGLAND AND NY

CITY           SKY/WX    TMP DP  RH WIND       PRES   REMARKS
WORCESTER      PTCLDY    19  15  84 W5        29.53F
NANTUCKET      CLOUDY    30  25  81 NE5       29.60S
PROVIDENCE     PTCLDY    19  16  88 W3        29.61S
HARTFORD       MOCLDY    22  19  89 CALM      29.57F
ALBANY         PTCLDY    27  22  81 S3        29.55F
NEW YORK CITY  CLOUDY    33  25  72 E3        29.60S
$$

ANZ081-ANZ082-ANZ150-NHZ014-MEZ023>029-100700-
COASTAL MARINE OBSERVATIONS

STATION/POSITION TIME  TEMP    WIND        PRES    WAVE
                       AIR SEA DIR/SP/G            HT/PER
                 (UTC) (F)     (DEG/KT/KT) (MB)    (FT/S)
MOUNT DESERT ROC 0600   25     310/ 10/ 12 1001.4F
MATINICUS ROCK   0600          300/ 10/ 13 1001.6S
ISLE OF SHOALS   0600   27     270/  2/  3 1001.8R
JEFFREYS LEDGE   0504      44                N/A     6/12
CASHES LEDGE BUO 0550   28 43  290/ 10/ 14 1001.7R   7/13
GEORGES BANK BUO 0550   39 46              1001.5S   8/14
$$

.............KEY..............
   WCI - WIND CHILL
   TC  - TEMPERATURE IN CELSIUS
   VSB - VISIBILITY IN MILES
   HX  - HEAT INDEX
   FAIR- INDICATES FEW OR NO CLOUDS BELOW 12,000 FT, WITH NO
         SIGNIFICANT WEATHER AND/OR OBSTRUCTIONS TO VISIBILITY.






USA.gov is the U.S. government's official web portal to all federal, state and local government web resources and services.